Regional Weather Roundup
Issued by NWS Kansas City/Pleasant Hill, MO

Home | Current Version | Previous Version | Graphics & Text | Print | Product List | Glossary Off
Versions: 1 2 3 4 5 6 7 8 9 10 11 12 13 14 15 16 17 18 19 20 21 22 23 24 25 26 27 28

000
ASUS43 KEAX 231310
RWREAX

WEATHER ROUNDUP FOR EASTERN KANSAS AND NORTHWEST MISSOURI
NATIONAL WEATHER SERVICE KANSAS CITY/PLEASANT HILL MO
700 AM CST MON JAN 23 2017

KSZ040-057-103>105-MOZ028-029-037-043-231400-
...KANSAS CITY METROPOLITAN AREA...

CITY           SKY/WX    TMP DP  RH WIND       PRES   REMARKS
K.C. INTL      FOG       31  29  92 NW6       29.89S VSB 1/2 WCI  25
K.C. DOWNTOWN  CLOUDY    32  31  96 NW7       29.91R FOG     WCI  26
LEES SUMMIT    CLOUDY    31  30  96 NW8       29.89R FOG     WCI  23
OLATHE - IXD   CLEAR     27  26  96 NW7       29.90R FOG     WCI  19
OLATHE - OJC   MOCLDY    29  29 100 NW6       29.89R FOG     WCI  23
LAWRENCE       PTCLDY    22  22 100 CALM      29.91S FOG

$$

MOZ001>008-011>017-020>025-030>033-038>040-044>046-053-054-231400-
...NORTHERN AND CENTRAL MISSOURI...

CITY           SKY/WX    TMP DP  RH WIND       PRES   REMARKS
ST. JOSEPH     CLOUDY    31  31 100 N12       29.91R FOG     WCI  22
MOSBY          CLOUDY    32  32 100 NW7       29.90R FOG     WCI  26
WARRENSBURG    FOG       32  32 100 W6        29.89R VSB 1/2 WCI  26
WHITEMAN AFB   FOG       33  33 100 N6        29.87R VSB 1/2 WCI  28
CLINTON        PTCLDY    32  32 100 CALM      29.90R FOG
SEDALIA        CLOUDY    36  35  96 N10       29.88S FOG     WCI  28
WARSAW         NOT AVBL
CHILLICOTHE      N/A     33  30  88 NW6       29.90R WCI  28
KIRKSVILLE     CLOUDY    36  33  89 NW8       29.85R WCI  30

$$

MOZ041-047>049-056>058-063>065-088>090-097-231400-
...EASTERN AND SOUTHERN MISSOURI...

CITY           SKY/WX    TMP DP  RH WIND       PRES   REMARKS
ST. LOUIS INTL MOCLDY    41  36  82 NW9       29.82R
SPIRIT OF STL  CLOUDY    41  37  86 NW9       29.82R
COLUMBIA       CLOUDY    38  36  92 NW9       29.85R WCI  31
JEFFERSON CITY MOCLDY    38  35  89 NW5       29.86R WCI  34
ROLLA          CLOUDY    38  36  92 NW13      29.82R WCI  30
OSAGE BEACH    CLOUDY    38  36  92 N5        29.86S WCI  34
SPRINGFIELD    CLOUDY    37  35  92 NW7       29.86R WCI  32
BRANSON        CLOUDY    37  36  93 NW13      29.87S WCI  29
JOPLIN         CLOUDY    37  35  92 CALM      29.92R
WEST PLAINS    CLOUDY    40  35  83 N10       29.82R WCI  33

$$

IAZ060-094-KSZ022-034>040-054-083-096-NEZ052-066-093-231400-
...KANSAS...SOUTHEAST NEBRASKA AND IOWA...

CITY           SKY/WX    TMP DP  RH WIND       PRES   REMARKS
TOPEKA         PTCLDY    28  25  88 W3        29.91S
MANHATTAN      PTCLDY    23  20  88 CALM      29.89F
EMPORIA        CLEAR     26  26 100 CALM      29.89F FOG
CHANUTE        CLEAR     27  25  92 W3        29.91R
WICHITA        CLEAR     30  27  88 E3        29.89F
OMAHA          CLOUDY    32  26  78 NW7       29.89S WCI  26
LINCOLN        CLOUDY    31  28  89 CALM      29.91S
FALLS CITY     CLOUDY    30  28  92 NW7       29.90F WCI  23
LAMONI         CLOUDY    31  29  92 NW7       29.84F WCI  24
DES MOINES     DRIZZLE   33  31  92 N6        29.85F FOG     WCI  28

$$





USA.gov is the U.S. government's official web portal to all federal, state and local government web resources and services.